User: anonymous   Login
Location: Unspecified
(0.0000°N, 0.0000°E)
Time: 22:13:10
(UTC+01:00)
Language:

CZ-4B DEB - Orbit

View from above orbital plane
View from above orbital plane
View from above satellite
View from above satellite

Ground track
Ground track

The orbit data is extracted from the following two-line orbital elements,

1 33411U 08053D   16042.16414406  .00024409  00000-0  68155-3 0  9994
2 33411  97.4655  70.2785 0004504 311.1598  48.9257 15.36705870400225
Epoch (UTC): 11 February 2016 03:56:22
Eccentricity: 0.0004504
inclination: 97.4655°
perigee height: 453 km
apogee height: 459 km
right ascension of ascending node: 70.2785°
argument of perigee: 311.1598°
revolutions per day: 15.36705870
mean anomaly at epoch: 48.9257°
orbit number at epoch: 40022

The dashed part of the orbit path shows where the satellite is in the earth's shadow,  

DLR